Ogden, UT

12:32 PM MST on January 17, 2018 (GMT -0700)
Ogden-Hinckley

Weather History for KOGD - April, 2014

Change the Weather History Date:

Wednesday, April 16, 2014

  Actual Average Record
Temperature  
Mean Temperature 48 °F -  
Max Temperature 55 °F 64 °F 81 °F (1985)
Min Temperature 41 °F 38 °F 24 °F (1982)
Degree Days  
Heating Degree Days 17    
Moisture  
Dew Point 18 °F    
Average Humidity 31    
Maximum Humidity 49    
Minimum Humidity 20    
Precipitation  
Precipitation 0.00 in - - ()
Sea Level Pressure  
Sea Level Pressure 29.92 in    
Wind  
Wind Speed 7 mph (WNW)    
Max Wind Speed 14 mph    
Max Gust Speed -    
Visibility 10 miles    
Events      
Averages and records for this station are not official NWS values.
T = Trace of Precipitation, MM = Missing Value Source: NWS Daily Summary

Daily Weather History Graph

Daily Weather History Graph

Search for Another Location

Airport or City:

Trip Planner

Search our weather history database for the weather conditions in past years. The results will help you decide how hot, cold, wet, or windy it might be!

Date:

Astronomy

Apr. 16, 2014 Rise Set
Actual Time 6:47 AM MDT 8:09 PM MDT
Civil Twilight 6:18 AM MDT 8:38 PM MDT
Nautical Twilight 5:43 AM MDT 9:12 PM MDT
Astronomical Twilight 5:07 AM MDT 9:49 PM MDT
Moon 9:57 PM MDT (4/16) 7:36 AM MDT (4/16)
Length of Visible Light 14h 19m
Length of Day
13h 22m
Full, 98% of the Moon is Illuminated
Apr 16
Full
Apr 22
Last Quarter
Apr 29
New
May 6
First Quarter
May 14
Full

Hourly Weather History & Observations

Time (MDT) Temp. Windchill Dew Point Humidity Pressure Visibility Wind Dir Wind Speed Gust Speed Precip Events Conditions
12:53 AM 48.0 °F - 15.1 °F 27% 29.86 in 10.0 mi North 12.7 mph - N/A   Clear
1:53 AM 46.9 °F - 15.1 °F 28% 29.86 in 10.0 mi North 10.4 mph - N/A   Clear
2:53 AM 44.1 °F 41.5 °F 16.0 °F 32% 29.87 in 10.0 mi North 4.6 mph - N/A   Clear
3:53 AM 44.1 °F 41.5 °F 18.0 °F 35% 29.88 in 10.0 mi North 4.6 mph - N/A   Clear
4:53 AM 43.0 °F 41.3 °F 18.0 °F 37% 29.89 in 10.0 mi NNW 3.5 mph - N/A   Clear
5:53 AM 43.0 °F 41.3 °F 18.0 °F 37% 29.90 in 10.0 mi NNW 3.5 mph - N/A   Clear
6:53 AM 41.0 °F - 21.9 °F 47% 29.91 in 10.0 mi Calm Calm - N/A   Partly Cloudy
7:53 AM 41.0 °F 37.1 °F 23.0 °F 49% 29.94 in 10.0 mi WNW 5.8 mph - N/A   Overcast
8:53 AM 44.1 °F 40.8 °F 25.0 °F 47% 29.95 in 10.0 mi WNW 5.8 mph - N/A   Clear
9:53 AM 46.9 °F - 23.0 °F 39% 29.95 in 10.0 mi West 8.1 mph - N/A   Partly Cloudy
10:53 AM 50.0 °F - 18.0 °F 28% 29.94 in 10.0 mi WNW 5.8 mph - N/A   Clear
11:53 AM 51.1 °F - 17.1 °F 26% 29.96 in 10.0 mi West 8.1 mph - N/A   Clear
12:53 PM 53.1 °F - 15.1 °F 22% 29.95 in 10.0 mi North - - N/A   Clear
1:53 PM 54.0 °F - 15.1 °F 22% 29.93 in 10.0 mi Calm Calm - N/A   Clear
2:53 PM 55.0 °F - 19.0 °F 24% 29.93 in 10.0 mi WSW 13.8 mph - N/A   Clear
3:53 PM 54.0 °F - 17.1 °F 23% 29.93 in 10.0 mi Variable 3.5 mph - N/A   Clear
4:53 PM 55.0 °F - 16.0 °F 22% 29.92 in 10.0 mi NNW 6.9 mph - N/A   Clear
5:53 PM 55.0 °F - 14.0 °F 20% 29.92 in 10.0 mi West 6.9 mph - N/A   Clear
6:53 PM 55.0 °F - 14.0 °F 20% 29.92 in 10.0 mi Calm Calm - N/A   Clear
7:53 PM 51.1 °F - 17.1 °F 26% 29.94 in 10.0 mi West 5.8 mph - N/A   Clear
8:53 PM 50.0 °F - 17.1 °F 27% 29.94 in 10.0 mi South 5.8 mph - N/A   Clear
9:53 PM 46.0 °F 43.1 °F 17.1 °F 31% 29.96 in 10.0 mi South 5.8 mph - N/A   Clear
10:53 PM 44.1 °F 39.5 °F 18.0 °F 35% 29.97 in 10.0 mi South 8.1 mph - N/A   Clear
11:53 PM 43.0 °F 38.8 °F 18.0 °F 37% 29.97 in 10.0 mi South 6.9 mph - N/A   Clear